Regional Weather Roundup
Issued by NWS Upton, NY

Current Version | Previous Version | Text Only | Print | Product List | Glossary On
Versions: 1 2 3 4 5 6 7 8 9 10 11 12 13 14 15 16 17 18 19 20 21 22 23 24 25 26 27
000
ASUS41 KOKX 300005
RWROKX

REGIONAL WEATHER ROUNDUP
NATIONAL WEATHER SERVICE NEW YORK NY
800 PM EDT SUN MAY 29 2016

NOTE: "FAIR" INDICATES FEW OR NO CLOUDS BELOW 12,000 FEET WITH NO
SIGNIFICANT WEATHER AND/OR OBSTRUCTIONS TO VISIBILITY.

NYZ071-072-176-178-NJZ106-104-300100-
NEW YORK CITY METRO AREA


CITY           SKY/WX    TMP DP  RH WIND       PRES   REMARKS
CENTRAL PARK   PTCLDY    74  64  71 MISG      30.09R
LAGUARDIA APRT MOCLDY    74  71  91 S17       30.06R
KENNEDY INTL   MOCLDY    70  67  90 SE14      30.08S
NEWARK/LIBERTY MOCLDY    76  65  68 NE5       30.04S
BRNX BOT. GARD   N/A     72  64  78 SE6       30.07S
TETERBORO      CLOUDY    78  64  61 SE6       30.04S
$$

NYZ177-179-078>081-300100-
LONG ISLAND NEW YORK

CITY           SKY/WX    TMP DP  RH WIND       PRES   REMARKS
FARMINGDALE    CLOUDY    69  67  93 S7        30.09S
ISLIP          FOG       68  66  93 S8        30.09S VSB 1/4
SHIRLEY        CLOUDY    68  66  93 SE7       30.11S FOG
RIVERHEAD        N/A     70  68  94 CALM      30.09S
WESTHAMPTON    FOG       65  64  97 S5        30.12S VSB 1/4
EAST HAMPTON   CLOUDY    65  64  97 S3        30.11R FOG
MONTAUK POINT    N/A     64  63  96 CALM      30.14R
$$

NYZ052-065-067-300100-
HUDSON VALLEY

CITY           SKY/WX    TMP DP  RH WIND       PRES   REMARKS
WHITE PLAINS   PTCLDY    72  66  81 SE7       30.08S
NEWBURGH       PTCLDY    77  64  65 SE12G17   30.05S
MONTGOMERY     PTCLDY    78  61  55 CALM      30.04R
POUGHKEEPSIE   PTCLDY    81  56  42 SE7       30.03S
ALBANY         CLOUDY    72  67  84 NW9       30.05R
$$

NJZ001-105-106-008-010-013-015-019>022-104-300100-
NEW JERSEY

CITY           SKY/WX    TMP DP  RH WIND       PRES   REMARKS
NEWARK/LIBERTY MOCLDY    76  65  68 NE5       30.04S
TETERBORO      CLOUDY    78  64  61 SE6       30.04S
CALDWELL       CLOUDY    78  66  66 SE3       30.04R
MORRISTOWN     MOCLDY    81  68  65 SE7       30.04S
SOMERVILLE     CLOUDY    80  59  48 CALM      30.02S
SUSSEX         MOCLDY    81  57  43 CALM      30.05R
ANDOVER          N/A     77  62  59 CALM      30.05S
TRENTON        CLOUDY    79  67  66 SW14      30.05R
MILLVILLE      CLOUDY    73  69  87 S6        30.08S
ATLANTIC CITY  CLOUDY    74  69  85 S9        30.08S
WRIGHTSTOWN    NOT AVBL
TOMS RIVER     PTCLDY    75  66  73 S8        30.08S
BELMAR         CLOUDY    76  69  79 S6        30.08S
$$

PAZ047>061-062-071-300100-
EASTERN PENNSYLVANIA

CITY           SKY/WX    TMP DP  RH WIND       PRES   REMARKS
PHILADELPHIA   LGT RAIN  74  70  87 S7        30.08S
ALLENTOWN      CLOUDY    82  62  50 SW8       30.04S
SCRANTON       CLOUDY    80  54  40 SW5       30.04S
$$

CTZ002-004>006-009-010-012-RIZ004-006-007-MAZ004-011-015-300100-
SOUTHERN NEW ENGLAND
 IN CT

CITY           SKY/WX    TMP DP  RH WIND       PRES   REMARKS
BRADLEY INTL   CLOUDY    78  56  46 S12       30.07R
HARTFORD       MOCLDY    78  65  63 S9        30.09R
DANBURY        CLOUDY    74  65  73 S6        30.09S
WTRBRY/OXFORD  MOCLDY    72  63  73 S8        30.12R
BRIDGEPORT     CLOUDY    71  66  84 S7        30.09R
MERIDEN        PTCLDY    75  66  73 S8        30.09R
NEW HAVEN      CLOUDY    70  67  90 S8        30.10R
CHESTER        CLOUDY    70  68  94 S6        30.12S FOG
GROTON         FOG       66  66 100 CALM      30.12R VSB 1
WILLIMANTIC    MOCLDY    76  63  64 S8        30.12R

 IN RI

CITY           SKY/WX    TMP DP  RH WIND       PRES   REMARKS
PROVIDENCE     FOG       65  63  93 SE7       30.15R VSB 1/2
BLOCK ISLAND   LGT RAIN  65  65 100 S5        30.14R VSB 1/4
WESTERLY       CLOUDY    66  62  87 E3        30.14R FOG

 IN MA

CITY           SKY/WX    TMP DP  RH WIND       PRES   REMARKS
BOSTON         CLOUDY    54  51  90 NE7       30.18R FOG
WORCESTER      CLOUDY    55  53  93 E7        30.17R
WESTFIELD      PTCLDY    71  61  70 N10       30.09R
PROVINCETOWN   CLOUDY    55  53  93 N5        30.17R
NANTUCKET      CLOUDY    68  60  75 N5        30.15S
$$

ANZ330-335-338-340-345-350-353-355-300100-
COASTAL MARINE OBSERVATIONS


STATION/POSITION TIME  SKY/WX   TEMP    WIND        PRES    VSBY  WAVE
                                AIR SEA DIR/SP/G                  HT/PER
                 (UTC)          (F)     (DEG/KT/KT) (MB)    (MI)  (FT/S)
NY HARB ENTRANCE 2250            62 58  170/ 10/ 10 1017.9          2/ 8
20S FIRE ISLAND  2250            63 62  150/  6/  8 1018.7          3/ 8
GREAT SOUTH BAY  2300            65 71  150/  2/  6   N/A
23 SSW MONTAUK P 2250            62 60  150/  6/  6 1019.3          2/ 8
15 E BARNEGAT LI 2322               62                N/A           3/ 8
HUDSON CANYON    2250            64 63              1019.9          3/ 8
KINGS POINT      2300               61              1017.8
EXECUTION ROCKS  NOT AVBL
CENTRAL LI SOUND 2300            67     170/ 10/ 12   N/A           1/ 2
EASTERN LI SOUND 2300            59 56  150/  6/  8   N/A
ROBBINS REEF     2300                               1016.7
$$


>>>>>>>>>>>>>>>>>>>>>>>>>>>> KEY <<<<<<<<<<<<<<<<<<<<<<<<<<<
>                                                          <
>     SKY/WX - SKY CONDITION/PRESENT WEATHER               <
>     TMP    - TEMPERATURE IN FAHRENHEIT                   <
>     DP     - DEWPOINT IN FAHRENHEIT                      <
>     RH     - RELATIVE HUMIDITY IN PERCENT                <
>     WIND   - DIRECTION AND SPEED IN MPH                  <
>     PRES   - MEAN SEA LEVEL PRESSURE IN INCHES OF HG     <
>     WCI    - WIND CHILL INDEX                            <
>     VSB    - VISIBILITY IN MILES                         <
>     HX     - HEAT INDEX                                  <
>     TC     - TEMPERATURE IN CELSIUS                      <
>     VRB    - VARIABLE WIND DIRECTION                     <
>                                                          <
>>>>>>>>>>>>>>>>>>>>>>>>>>>> KEY <<<<<<<<<<<<<<<<<<<<<<<<<<<






USA.gov is the U.S. government's official web portal to all federal, state and local government web resources and services.